Regional Weather Roundup
Issued by NWS Little Rock, AR

Home | Current Version | Previous Version | Graphics & Text | Print | Product List | Glossary On
Versions: 1 2 3 4 5 6 7 8 9 10 11 12 13 14 15 16 17 18 19 20 21 22 23 24 25 26 27 28 29 30 31 32
000
ASUS44 KLZK 222305
RWRLZK

WEATHER ROUNDUP FOR ARKANSAS
NATIONAL WEATHER SERVICE LITTLE ROCK AR
600 PM CDT THU JUN 22 2017

NOTE: "FAIR" INDICATES FEW OR NO CLOUDS BELOW 12,000 FEET WITH NO
SIGNIFICANT WEATHER AND/OR OBSTRUCTIONS TO VISIBILITY.

ARZ001-003-010-029-230000-
NORTHWEST ARKANSAS

CITY           SKY/WX    TMP DP  RH WIND       PRES   REMARKS
FAYETTEVILLE   PTSUNNY   86  71  60 SE8       29.69F HX  91
FORT SMITH     MOSUNNY   87  75  67 E8        29.64F HX  96
HARRISON       CLOUDY    82  72  71 SE10      29.73F HX  87
BENTONVILLE    MOSUNNY   84  70  61 SE8       29.71F HX  88
ROGERS         PTSUNNY   85  72  65 SE8       29.71F HX  91
SILOAM SPGS    PTSUNNY   84  72  65 SE6       29.69S HX  89
HIGHFILL       MOSUNNY   87  72  60 S9        29.70F HX  93
SPRINGDALE     MOSUNNY   86  72  62 SE6       29.71F HX  92
$$

ARZ004-005-016-230000-
NORTH CENTRAL ARKANSAS

CITY           SKY/WX    TMP DP  RH WIND       PRES   REMARKS
BATESVILLE     CLOUDY    79  73  83 E7        29.71S
FLIPPIN        CLOUDY   N/A N/A N/A CALM      29.71R
MTN HOME       CLOUDY    81  73  76 SW12G18   29.72S HX  86
$$

ARZ040-041-230000-
WEST CENTRAL ARKANSAS

CITY           SKY/WX    TMP DP  RH WIND       PRES   REMARKS
MENA           PTSUNNY   81  79  94 E5        29.68F HX  89
MOUNT IDA      PTSUNNY   83  74  74 SE7       29.64F HX  89
$$

ARZ009-017-025-026-028-230000-
NORTHEAST ARKANSAS

CITY           SKY/WX    TMP DP  RH WIND       PRES   REMARKS
JONESBORO      CLOUDY    82  77  84 SE3       29.72F HX  90
WALNUT RIDGE   CLOUDY    81  73  78 S5        29.71F HX  85
BLYTHEVILLE    PTSUNNY   86  77  74 SE9G18    29.74F HX  97
$$

ARZ022-023-033-042-044-230000-
CENTRAL ARKANSAS

CITY           SKY/WX    TMP DP  RH WIND       PRES   REMARKS
LITTLE ROCK    RAIN      75  75 100 SE14      29.67F FOG
N LITTLE ROCK    N/A     76  73  92 SE9G26    29.66F
JACKSONVILLE   LGT RAIN  78  78  99 E9        29.67F
CONWAY           N/A     79  77  94 NE6       29.65F FOG
SEARCY         RAIN      78  77  96 E6        29.71F
HOT SPRINGS    CLOUDY    81  75  82 E10       29.65F HX  87
RUSSELLVILLE   CLOUDY    82  75  79 E6        29.67F HX  89
CLINTON        FAIR      81  75  83 CALM      29.71S HX  86
$$

ARZ036-230000-
EAST ARKANSAS

CITY           SKY/WX    TMP DP  RH WIND       PRES   REMARKS
WEST MEMPHIS   PTSUNNY   76  75  97 W3        29.72S
$$

ARZ050-053-066-070-073-230000-
SOUTHWEST ARKANSAS

CITY           SKY/WX    TMP DP  RH WIND       PRES   REMARKS
ARKADELPHIA    LGT RAIN  78  77  96 NE7       29.62F
CAMDEN         CLOUDY    82  75  78 E8        29.59F HX  89
TEXARKANA      CLOUDY    82  73  74 NE8G18    29.60R HX  87
EL DORADO      CLOUDY    82  77  84 E12       29.57F HX  90
DE QUEEN       PTSUNNY   80  78  94 NE8       29.61R HX  88
$$

ARZ056-057-069-230000-
SOUTHEAST ARKANSAS

CITY           SKY/WX    TMP DP  RH WIND       PRES   REMARKS
PINE BLUFF     LGT RAIN  79  76  90 E17G25    29.64F
STUTTGART      CLOUDY    79  66  65 E15G24    29.67F
MONTICELLO     PTSUNNY   81  75  82 SE6G17    29.64F HX  87

$$






USA.gov is the U.S. government's official web portal to all federal, state and local government web resources and services.